Location: Miles
(41.4492°N, 81.6087°W)
Time: 13:52:59
(UTC+00:00)

S-56A Canister/Altair - Visible Passes

Search period start: 10 December 2025 00:00
Search period end: 20 December 2025 00:00
Orbit: 632 x 2485 km, 38.9° (Epoch: 10 December)

Date Brightness Start Highest point End Pass type
(mag) Time Alt. Az. Time Alt. Az. Time Alt. Az.
10 Dec 11.0 07:49:12 17° SE 07:49:12 17° SE 07:51:27 10° SE visible
10 Dec 10.5 09:46:29 21° SSW 09:46:29 21° SSW 09:53:44 10° S visible
11 Dec 10.7 09:13:49 20° S 09:13:49 20° S 09:18:44 10° SSE visible
12 Dec 10.9 08:41:09 15° S 08:41:09 15° S 08:43:37 10° SSE visible
14 Dec 10.0 01:10:52 10° SW 01:10:53 10° SW 01:10:53 10° SW visible
15 Dec 9.2 00:36:29 10° SSW 00:38:06 18° SSW 00:38:06 18° SSW visible
16 Dec 8.7 00:02:06 10° SSW 00:05:17 22° SSE 00:05:17 22° SSE visible
16 Dec 8.9 23:27:45 10° SSW 23:31:01 19° SSE 23:32:27 16° SE visible
17 Dec 10.2 01:29:33 10° WSW 01:29:44 11° WSW 01:29:44 11° WSW visible
17 Dec 9.3 22:53:26 10° S 22:56:23 16° SSE 22:59:09 10° ESE visible
18 Dec 9.1 00:54:56 10° WSW 00:56:53 24° SW 00:56:53 24° SW visible
19 Dec 8.0 00:20:16 10° SW 00:24:01 40° S 00:24:01 40° S visible
19 Dec 7.9 23:45:33 10° SW 23:50:04 39° SSE 23:51:09 33° SE visible
